Year,Month,Day,Hour,Minute,Value (Times are PST for temperature in C)
2010,10,19,00,00,7.10
2010,10,19,00,01,7.10
2010,10,19,00,02,7.10
2010,10,19,00,03,7.00
2010,10,19,00,04,7.00
2010,10,19,00,05,7.00
2010,10,19,00,06,7.00
2010,10,19,00,07,7.00
2010,10,19,00,08,7.00
2010,10,19,00,09,6.90
2010,10,19,00,10,6.90
2010,10,19,00,11,6.90
2010,10,19,00,12,6.90
2010,10,19,00,13,6.90
2010,10,19,00,14,6.90
2010,10,19,00,15,6.90
2010,10,19,00,16,6.90
2010,10,19,00,17,6.80
2010,10,19,00,18,6.80
2010,10,19,00,19,6.80
2010,10,19,00,20,6.80
2010,10,19,00,21,6.80
2010,10,19,00,22,6.80
2010,10,19,00,23,6.80
2010,10,19,00,24,6.80
2010,10,19,00,25,6.80
2010,10,19,00,26,6.80
2010,10,19,00,27,6.80
2010,10,19,00,28,6.80
2010,10,19,00,29,6.80
2010,10,19,00,30,6.80
2010,10,19,00,31,6.80
2010,10,19,00,32,6.70
2010,10,19,00,33,6.70
2010,10,19,00,34,6.70
2010,10,19,00,35,6.70
2010,10,19,00,36,6.70
2010,10,19,00,37,6.70
2010,10,19,00,38,6.70
2010,10,19,00,39,6.70
2010,10,19,00,40,6.70
2010,10,19,00,41,6.70
2010,10,19,00,42,6.70
2010,10,19,00,43,6.80
2010,10,19,00,44,6.70
2010,10,19,00,45,6.70
2010,10,19,00,46,6.80
2010,10,19,00,47,6.70
2010,10,19,00,48,6.70
2010,10,19,00,49,6.70
2010,10,19,00,50,6.70
2010,10,19,00,51,6.70
2010,10,19,00,52,6.70
2010,10,19,00,53,6.70
2010,10,19,00,54,6.70
2010,10,19,00,55,6.70
2010,10,19,00,56,6.70
2010,10,19,00,57,6.70
2010,10,19,00,58,6.70
2010,10,19,00,59,6.70
2010,10,19,01,00,6.70
2010,10,19,01,01,6.70
2010,10,19,01,02,6.70
2010,10,19,01,03,6.80
2010,10,19,01,04,6.80
2010,10,19,01,05,6.80
2010,10,19,01,06,6.80
2010,10,19,01,07,6.80
2010,10,19,01,08,6.80
2010,10,19,01,09,6.80
2010,10,19,01,10,6.80
2010,10,19,01,11,6.80
2010,10,19,01,12,6.80
2010,10,19,01,13,6.80
2010,10,19,01,14,6.80
2010,10,19,01,15,6.80
2010,10,19,01,16,6.80
2010,10,19,01,17,6.80
2010,10,19,01,18,6.80
2010,10,19,01,19,6.80
2010,10,19,01,20,6.80
2010,10,19,01,21,6.80
2010,10,19,01,22,6.80
2010,10,19,01,23,6.80
2010,10,19,01,24,6.80
2010,10,19,01,25,6.80
2010,10,19,01,26,6.80
2010,10,19,01,27,6.80
2010,10,19,01,28,6.80
2010,10,19,01,29,6.80
2010,10,19,01,30,6.80
2010,10,19,01,31,6.70
2010,10,19,01,32,6.70
2010,10,19,01,33,6.70
2010,10,19,01,34,6.70
2010,10,19,01,35,6.70
2010,10,19,01,36,6.70
2010,10,19,01,37,6.70
2010,10,19,01,38,6.70
2010,10,19,01,39,6.70
2010,10,19,01,40,6.70
2010,10,19,01,41,6.70
2010,10,19,01,42,6.70
2010,10,19,01,43,6.70
2010,10,19,01,44,6.70
2010,10,19,01,45,6.70
2010,10,19,01,46,6.70
2010,10,19,01,47,6.70
2010,10,19,01,48,6.70
2010,10,19,01,49,6.70
2010,10,19,01,50,6.70
2010,10,19,01,51,6.70
2010,10,19,01,52,6.70
2010,10,19,01,53,6.70
2010,10,19,01,54,6.70
2010,10,19,01,55,6.70
2010,10,19,01,56,6.70
2010,10,19,01,57,6.70
2010,10,19,01,58,6.70
2010,10,19,01,59,6.70
2010,10,19,02,00,6.70
2010,10,19,02,01,6.70
2010,10,19,02,02,6.70
2010,10,19,02,03,6.70
2010,10,19,02,04,6.70
2010,10,19,02,05,6.80
2010,10,19,02,06,6.80
2010,10,19,02,07,6.80
2010,10,19,02,08,6.80
2010,10,19,02,09,6.80
2010,10,19,02,10,6.80
2010,10,19,02,11,6.80
2010,10,19,02,12,6.80
2010,10,19,02,13,6.80
2010,10,19,02,14,6.80
2010,10,19,02,15,6.80
2010,10,19,02,16,6.80
2010,10,19,02,17,6.80
2010,10,19,02,18,6.80
2010,10,19,02,19,6.80
2010,10,19,02,20,6.80
2010,10,19,02,21,6.80
2010,10,19,02,22,6.90
2010,10,19,02,23,6.90
2010,10,19,02,24,6.90
2010,10,19,02,25,6.90
2010,10,19,02,26,6.90
2010,10,19,02,27,6.90
2010,10,19,02,28,6.90
2010,10,19,02,29,6.80
2010,10,19,02,30,6.80
2010,10,19,02,31,6.80
2010,10,19,02,32,6.80
2010,10,19,02,33,6.80
2010,10,19,02,34,6.80
2010,10,19,02,35,6.80
2010,10,19,02,36,6.80
2010,10,19,02,37,6.80
2010,10,19,02,38,6.80
2010,10,19,02,39,6.80
2010,10,19,02,40,6.80
2010,10,19,02,41,6.80
2010,10,19,02,42,6.80
2010,10,19,02,43,6.80
2010,10,19,02,44,6.80
2010,10,19,02,45,6.80
2010,10,19,02,46,6.80
2010,10,19,02,47,6.80
2010,10,19,02,48,6.80
2010,10,19,02,49,6.90
2010,10,19,02,50,6.80
2010,10,19,02,51,6.80
2010,10,19,02,52,6.90
2010,10,19,02,53,6.90
2010,10,19,02,54,6.90
2010,10,19,02,55,6.90
2010,10,19,02,56,6.90
2010,10,19,02,57,6.90
2010,10,19,02,58,6.90
2010,10,19,02,59,6.90
2010,10,19,03,00,6.90
2010,10,19,03,01,6.90
2010,10,19,03,02,6.90
2010,10,19,03,03,6.90
2010,10,19,03,04,6.90
2010,10,19,03,05,7.00
2010,10,19,03,06,7.00
2010,10,19,03,07,7.00
2010,10,19,03,08,7.00
2010,10,19,03,09,7.00
2010,10,19,03,10,7.00
2010,10,19,03,11,7.00
2010,10,19,03,12,7.00
2010,10,19,03,13,7.00
2010,10,19,03,14,7.10
2010,10,19,03,15,7.10
2010,10,19,03,16,7.10
2010,10,19,03,17,7.10
2010,10,19,03,18,7.10
2010,10,19,03,19,7.10
2010,10,19,03,20,7.10
2010,10,19,03,21,7.20
2010,10,19,03,22,7.20
2010,10,19,03,23,7.20
2010,10,19,03,24,7.20
2010,10,19,03,25,7.20
2010,10,19,03,26,7.20
2010,10,19,03,27,7.30
2010,10,19,03,28,7.30
2010,10,19,03,29,7.30
2010,10,19,03,30,7.30
2010,10,19,03,31,7.30
2010,10,19,03,32,7.30
2010,10,19,03,33,7.30
2010,10,19,03,34,7.30
2010,10,19,03,35,7.40
2010,10,19,03,36,7.40
2010,10,19,03,37,7.40
2010,10,19,03,38,7.40
2010,10,19,03,39,7.40
2010,10,19,03,40,7.40
2010,10,19,03,41,7.40
2010,10,19,03,42,7.40
2010,10,19,03,43,7.40
2010,10,19,03,44,7.40
2010,10,19,03,45,7.50
2010,10,19,03,46,7.50
2010,10,19,03,47,7.50
2010,10,19,03,48,7.60
2010,10,19,03,49,7.60
2010,10,19,03,50,7.60
2010,10,19,03,51,7.60
2010,10,19,03,52,7.60
2010,10,19,03,53,7.60
2010,10,19,03,54,7.60
2010,10,19,03,55,7.60
2010,10,19,03,56,7.60
2010,10,19,03,57,7.60
2010,10,19,03,58,7.60
2010,10,19,03,59,7.60
2010,10,19,04,00,7.60
2010,10,19,04,01,7.60
2010,10,19,04,02,7.70
2010,10,19,04,03,7.70
2010,10,19,04,04,7.70
2010,10,19,04,05,7.70
2010,10,19,04,06,7.70
2010,10,19,04,07,7.70
2010,10,19,04,08,7.70
2010,10,19,04,09,7.70
2010,10,19,04,10,7.70
2010,10,19,04,11,7.70
2010,10,19,04,12,7.70
2010,10,19,04,13,7.70
2010,10,19,04,14,7.70
2010,10,19,04,15,7.70
2010,10,19,04,16,7.70
2010,10,19,04,17,7.70
2010,10,19,04,18,7.70
2010,10,19,04,19,7.70
2010,10,19,04,20,7.70
2010,10,19,04,21,7.70
2010,10,19,04,22,7.70
2010,10,19,04,23,7.70
2010,10,19,04,24,7.70
2010,10,19,04,25,7.70
2010,10,19,04,26,7.70
2010,10,19,04,27,7.70
2010,10,19,04,28,7.70
2010,10,19,04,29,7.80
2010,10,19,04,30,7.80
2010,10,19,04,31,7.80
2010,10,19,04,32,7.80
2010,10,19,04,33,7.80
2010,10,19,04,34,7.80
2010,10,19,04,35,7.90
2010,10,19,04,36,7.90
2010,10,19,04,37,7.90
2010,10,19,04,38,7.90
2010,10,19,04,39,7.90
2010,10,19,04,40,7.90
2010,10,19,04,41,7.90
2010,10,19,04,42,8.00
2010,10,19,04,43,8.00
2010,10,19,04,44,8.00
2010,10,19,04,45,8.00
2010,10,19,04,46,8.00
2010,10,19,04,47,8.00
2010,10,19,04,48,8.00
2010,10,19,04,49,8.00
2010,10,19,04,50,8.00
2010,10,19,04,51,8.00
2010,10,19,04,52,8.00
2010,10,19,04,53,8.00
2010,10,19,04,54,8.00
2010,10,19,04,55,8.10
2010,10,19,04,56,8.00
2010,10,19,04,57,8.10
2010,10,19,04,58,8.10
2010,10,19,04,59,8.10
2010,10,19,05,00,8.10
2010,10,19,05,01,8.10
2010,10,19,05,02,8.10
2010,10,19,05,03,8.10
2010,10,19,05,04,8.10
2010,10,19,05,05,8.10
2010,10,19,05,06,8.10
2010,10,19,05,07,8.10
2010,10,19,05,08,8.00
2010,10,19,05,09,8.00
2010,10,19,05,10,8.00
2010,10,19,05,11,8.00
2010,10,19,05,12,8.00
2010,10,19,05,13,8.00
2010,10,19,05,14,8.00
2010,10,19,05,15,8.00
2010,10,19,05,16,8.00
2010,10,19,05,17,8.00
2010,10,19,05,18,8.00
2010,10,19,05,19,8.00
2010,10,19,05,20,8.00
2010,10,19,05,21,8.00
2010,10,19,05,22,7.90
2010,10,19,05,23,8.00
2010,10,19,05,24,8.00
2010,10,19,05,25,7.90
2010,10,19,05,26,7.90
2010,10,19,05,27,7.90
2010,10,19,05,28,7.90
2010,10,19,05,29,7.90
2010,10,19,05,30,7.90
2010,10,19,05,31,7.90
2010,10,19,05,32,7.90
2010,10,19,05,33,7.90
2010,10,19,05,34,7.90
2010,10,19,05,35,7.90
2010,10,19,05,36,7.90
2010,10,19,05,37,7.90
2010,10,19,05,38,7.90
2010,10,19,05,39,7.90
2010,10,19,05,40,7.90
2010,10,19,05,41,7.90
2010,10,19,05,42,7.90
2010,10,19,05,43,7.90
2010,10,19,05,44,7.90
2010,10,19,05,45,7.90
2010,10,19,05,46,7.90
2010,10,19,05,47,7.90
2010,10,19,05,48,7.90
2010,10,19,05,49,7.90
2010,10,19,05,50,7.90
2010,10,19,05,51,7.90
2010,10,19,05,52,7.90
2010,10,19,05,53,7.90
2010,10,19,05,54,7.90
2010,10,19,05,55,7.90
2010,10,19,05,56,7.90
2010,10,19,05,57,7.90
2010,10,19,05,58,7.90
2010,10,19,05,59,7.90
2010,10,19,06,00,7.90
2010,10,19,06,01,7.90
2010,10,19,06,02,7.90
2010,10,19,06,03,7.90
2010,10,19,06,04,7.90
2010,10,19,06,05,7.90
2010,10,19,06,06,7.90
2010,10,19,06,07,8.00
2010,10,19,06,08,8.00
2010,10,19,06,09,8.00
2010,10,19,06,10,8.00
2010,10,19,06,11,8.00
2010,10,19,06,12,8.00
2010,10,19,06,13,8.00
2010,10,19,06,14,8.00
2010,10,19,06,15,8.00
2010,10,19,06,16,8.00
2010,10,19,06,17,8.00
2010,10,19,06,18,8.00
2010,10,19,06,19,8.00
2010,10,19,06,20,8.00
2010,10,19,06,21,8.00
2010,10,19,06,22,8.00
2010,10,19,06,23,8.00
2010,10,19,06,24,8.00
2010,10,19,06,25,8.00
2010,10,19,06,26,8.00
2010,10,19,06,27,8.00
2010,10,19,06,28,8.00
2010,10,19,06,29,8.00
2010,10,19,06,30,8.00
2010,10,19,06,31,8.00
2010,10,19,06,32,8.00
2010,10,19,06,33,8.00
2010,10,19,06,34,8.00
2010,10,19,06,35,8.00
2010,10,19,06,36,8.00
2010,10,19,06,37,8.00
2010,10,19,06,38,8.00
2010,10,19,06,39,8.00
2010,10,19,06,40,8.00
2010,10,19,06,41,8.00
2010,10,19,06,42,8.10
2010,10,19,06,43,8.10
2010,10,19,06,44,8.10
2010,10,19,06,45,8.10
2010,10,19,06,46,8.10
2010,10,19,06,47,8.10
2010,10,19,06,48,8.10
2010,10,19,06,49,8.10
2010,10,19,06,50,8.10
2010,10,19,06,51,8.10
2010,10,19,06,52,8.10
2010,10,19,06,53,8.10
2010,10,19,06,54,8.10
2010,10,19,06,55,8.10
2010,10,19,06,56,8.10
2010,10,19,06,57,8.10
2010,10,19,06,58,8.10
2010,10,19,06,59,8.10
2010,10,19,07,00,8.10
2010,10,19,07,01,8.10
2010,10,19,07,02,8.10
2010,10,19,07,03,8.10
2010,10,19,07,04,8.10
2010,10,19,07,05,8.10
2010,10,19,07,06,8.00
2010,10,19,07,07,8.00
2010,10,19,07,08,8.00
2010,10,19,07,09,8.00
2010,10,19,07,10,7.90
2010,10,19,07,11,7.90
2010,10,19,07,12,7.90
2010,10,19,07,13,7.90
2010,10,19,07,14,7.90
2010,10,19,07,15,7.90
2010,10,19,07,16,7.80
2010,10,19,07,17,7.80
2010,10,19,07,18,7.80
2010,10,19,07,19,7.80
2010,10,19,07,20,7.80
2010,10,19,07,21,7.80
2010,10,19,07,22,7.80
2010,10,19,07,23,7.80
2010,10,19,07,24,7.80
2010,10,19,07,25,7.80
2010,10,19,07,26,7.80
2010,10,19,07,27,7.80
2010,10,19,07,28,7.80
2010,10,19,07,29,7.70
2010,10,19,07,30,7.70
2010,10,19,07,31,7.70
2010,10,19,07,32,7.70
2010,10,19,07,33,7.70
2010,10,19,07,34,7.70
2010,10,19,07,35,7.70
2010,10,19,07,36,7.70
2010,10,19,07,37,7.70
2010,10,19,07,38,7.70
2010,10,19,07,39,7.70
2010,10,19,07,40,7.70
2010,10,19,07,41,7.70
2010,10,19,07,42,7.70
2010,10,19,07,43,7.70
2010,10,19,07,44,7.70
2010,10,19,07,45,7.70
2010,10,19,07,46,7.70
2010,10,19,07,47,7.70
2010,10,19,07,48,7.70
2010,10,19,07,49,7.70
2010,10,19,07,50,7.70
2010,10,19,07,51,7.60
2010,10,19,07,52,7.60
2010,10,19,07,53,7.60
2010,10,19,07,54,7.60
2010,10,19,07,55,7.60
2010,10,19,07,56,7.60
2010,10,19,07,57,7.60
2010,10,19,07,58,7.60
2010,10,19,07,59,7.60
2010,10,19,08,00,7.60
2010,10,19,08,01,7.60
2010,10,19,08,02,7.60
2010,10,19,08,03,7.60
2010,10,19,08,04,7.60
2010,10,19,08,05,7.60
2010,10,19,08,06,7.60
2010,10,19,08,07,7.60
2010,10,19,08,08,7.60
2010,10,19,08,09,7.50
2010,10,19,08,10,7.50
2010,10,19,08,11,7.50
2010,10,19,08,12,7.50
2010,10,19,08,13,7.50
2010,10,19,08,14,7.50
2010,10,19,08,15,7.50
2010,10,19,08,16,7.40
2010,10,19,08,17,7.40
2010,10,19,08,18,7.40
2010,10,19,08,19,7.40
2010,10,19,08,20,7.40
2010,10,19,08,21,7.40
2010,10,19,08,22,7.40
2010,10,19,08,23,7.40
2010,10,19,08,24,7.40
2010,10,19,08,25,7.40
2010,10,19,08,26,7.40
2010,10,19,08,27,7.40
2010,10,19,08,28,7.40
2010,10,19,08,29,7.40
2010,10,19,08,30,7.40
2010,10,19,08,31,7.40
2010,10,19,08,32,7.40
2010,10,19,08,33,7.40
2010,10,19,08,34,7.40
2010,10,19,08,35,7.40
2010,10,19,08,36,7.40
2010,10,19,08,37,7.40
2010,10,19,08,38,7.30
2010,10,19,08,39,7.40
2010,10,19,08,40,7.40
2010,10,19,08,41,7.40
2010,10,19,08,42,7.40
2010,10,19,08,43,7.40
2010,10,19,08,44,7.30
2010,10,19,08,45,7.40
2010,10,19,08,46,7.30
2010,10,19,08,47,7.30
2010,10,19,08,48,7.30
2010,10,19,08,49,7.30
2010,10,19,08,50,7.30
2010,10,19,08,51,7.30
2010,10,19,08,52,7.30
2010,10,19,08,53,7.30
2010,10,19,08,54,7.30
2010,10,19,08,55,7.30
2010,10,19,08,56,7.30
2010,10,19,08,57,7.30
2010,10,19,08,58,7.30
2010,10,19,08,59,7.30
2010,10,19,09,00,7.30
2010,10,19,09,01,7.30
2010,10,19,09,02,7.30
2010,10,19,09,03,7.30
2010,10,19,09,04,7.30
2010,10,19,09,05,7.30
2010,10,19,09,06,7.40
2010,10,19,09,07,7.40
2010,10,19,09,08,7.40
2010,10,19,09,09,7.40
2010,10,19,09,10,7.40
2010,10,19,09,11,7.40
2010,10,19,09,12,7.40
2010,10,19,09,13,7.40
2010,10,19,09,14,7.40
2010,10,19,09,15,7.40
2010,10,19,09,16,7.40
2010,10,19,09,17,7.40
2010,10,19,09,18,7.40
2010,10,19,09,19,7.40
2010,10,19,09,20,7.40
2010,10,19,09,21,7.40
2010,10,19,09,22,7.40
2010,10,19,09,23,7.40
2010,10,19,09,24,7.40
2010,10,19,09,25,7.40
2010,10,19,09,26,7.40
2010,10,19,09,27,7.40
2010,10,19,09,28,7.40
2010,10,19,09,29,7.40
2010,10,19,09,30,7.40
2010,10,19,09,31,7.40
2010,10,19,09,32,7.50
2010,10,19,09,33,7.50
2010,10,19,09,34,7.50
2010,10,19,09,35,7.60
2010,10,19,09,36,7.60
2010,10,19,09,37,7.60
2010,10,19,09,38,7.60
2010,10,19,09,39,7.60
2010,10,19,09,40,7.60
2010,10,19,09,41,7.60
2010,10,19,09,42,7.70
2010,10,19,09,43,7.70
2010,10,19,09,44,7.70
2010,10,19,09,45,7.70
2010,10,19,09,46,7.70
2010,10,19,09,47,7.70
2010,10,19,09,48,7.80
2010,10,19,09,49,7.80
2010,10,19,09,50,7.80
2010,10,19,09,51,7.90
2010,10,19,09,52,7.90
2010,10,19,09,53,7.90
2010,10,19,09,54,8.00
2010,10,19,09,55,8.00
2010,10,19,09,56,8.10
2010,10,19,09,57,8.10
2010,10,19,09,58,8.10
2010,10,19,09,59,8.20
2010,10,19,10,00,8.20
2010,10,19,10,01,8.20
2010,10,19,10,02,8.30
2010,10,19,10,03,8.30
2010,10,19,10,04,8.40
2010,10,19,10,05,8.40
2010,10,19,10,06,8.40
2010,10,19,10,07,8.50
2010,10,19,10,08,8.50
2010,10,19,10,09,8.60
2010,10,19,10,10,8.60
2010,10,19,10,11,8.60
2010,10,19,10,12,8.70
2010,10,19,10,13,8.70
2010,10,19,10,14,8.70
2010,10,19,10,15,8.70
2010,10,19,10,16,8.80
2010,10,19,10,17,8.80
2010,10,19,10,18,8.80
2010,10,19,10,19,8.80
2010,10,19,10,20,8.90
2010,10,19,10,21,8.90
2010,10,19,10,22,8.90
2010,10,19,10,23,8.90
2010,10,19,10,24,8.90
2010,10,19,10,25,9.00
2010,10,19,10,26,9.00
2010,10,19,10,27,9.00
2010,10,19,10,28,9.00
2010,10,19,10,29,9.10
2010,10,19,10,30,9.10
2010,10,19,10,31,9.10
2010,10,19,10,32,9.10
2010,10,19,10,33,9.10
2010,10,19,10,34,9.10
2010,10,19,10,35,9.20
2010,10,19,10,36,9.20
2010,10,19,10,37,9.20
2010,10,19,10,38,9.20
2010,10,19,10,39,9.20
2010,10,19,10,40,9.20
2010,10,19,10,41,9.20
2010,10,19,10,42,9.30
2010,10,19,10,43,9.30
2010,10,19,10,44,9.30
2010,10,19,10,45,9.30
2010,10,19,10,46,9.30
2010,10,19,10,47,9.40
2010,10,19,10,48,9.40
2010,10,19,10,49,9.50
2010,10,19,10,50,9.60
2010,10,19,10,51,9.60
2010,10,19,10,52,9.60
2010,10,19,10,53,9.70
2010,10,19,10,54,9.70
2010,10,19,10,55,9.70
2010,10,19,10,56,9.80
2010,10,19,10,57,9.80
2010,10,19,10,58,9.80
2010,10,19,10,59,9.80
2010,10,19,11,00,9.80
2010,10,19,11,01,9.90
2010,10,19,11,02,9.90
2010,10,19,11,03,9.90
2010,10,19,11,04,9.90
2010,10,19,11,05,9.90
2010,10,19,11,06,9.90
2010,10,19,11,07,9.90
2010,10,19,11,08,9.90
2010,10,19,11,09,9.90
2010,10,19,11,10,9.90
2010,10,19,11,11,9.90
2010,10,19,11,12,9.90
2010,10,19,11,13,9.90
2010,10,19,11,14,10.00
2010,10,19,11,15,10.00
2010,10,19,11,16,10.00
2010,10,19,11,17,10.00
2010,10,19,11,18,10.00
2010,10,19,11,19,10.10
2010,10,19,11,20,10.10
2010,10,19,11,21,10.10
2010,10,19,11,22,10.10
2010,10,19,11,23,10.10
2010,10,19,11,24,10.20
2010,10,19,11,25,10.20
2010,10,19,11,26,10.30
2010,10,19,11,27,10.30
2010,10,19,11,28,10.30
2010,10,19,11,29,10.30
2010,10,19,11,30,10.40
2010,10,19,11,31,10.40
2010,10,19,11,32,10.40
2010,10,19,11,33,10.50
2010,10,19,11,34,10.50
2010,10,19,11,35,10.50
2010,10,19,11,36,10.60
2010,10,19,11,37,10.60
2010,10,19,11,38,10.70
2010,10,19,11,39,10.70
2010,10,19,11,40,10.80
2010,10,19,11,41,10.80
2010,10,19,11,42,10.80
2010,10,19,11,43,10.80
2010,10,19,11,44,10.90
2010,10,19,11,45,10.90
2010,10,19,11,46,10.90
2010,10,19,11,47,11.00
2010,10,19,11,48,11.00
2010,10,19,11,49,11.00
2010,10,19,11,50,11.10
2010,10,19,11,51,11.10
2010,10,19,11,52,11.10
2010,10,19,11,53,11.20
2010,10,19,11,54,11.20
2010,10,19,11,55,11.20
2010,10,19,11,56,11.30
2010,10,19,11,57,11.30
2010,10,19,11,58,11.30
2010,10,19,11,59,11.30
2010,10,19,12,00,11.40
2010,10,19,12,01,11.40
2010,10,19,12,02,11.40
2010,10,19,12,03,11.50
2010,10,19,12,04,11.50
2010,10,19,12,05,11.60
2010,10,19,12,06,11.60
2010,10,19,12,07,11.60
2010,10,19,12,08,11.60
2010,10,19,12,09,11.70
2010,10,19,12,10,11.70
2010,10,19,12,11,11.70
2010,10,19,12,12,11.80
2010,10,19,12,13,11.80
2010,10,19,12,14,11.80
2010,10,19,12,15,11.90
2010,10,19,12,16,11.90
2010,10,19,12,17,11.90
2010,10,19,12,18,12.00
2010,10,19,12,19,12.00
2010,10,19,12,20,12.10
2010,10,19,14,06,15.30
2010,10,19,14,07,15.40
2010,10,19,14,08,15.40
2010,10,19,14,09,15.40
2010,10,19,14,10,15.50
2010,10,19,14,11,15.50
2010,10,19,14,12,15.60
2010,10,19,14,13,15.60
2010,10,19,14,14,15.70
2010,10,19,14,15,15.70
2010,10,19,14,16,15.70
2010,10,19,14,17,15.80
2010,10,19,14,18,15.80
2010,10,19,14,19,15.80
2010,10,19,14,20,15.80
2010,10,19,14,21,15.80
2010,10,19,14,22,15.80
2010,10,19,14,23,15.80
2010,10,19,14,24,15.80
2010,10,19,14,25,15.90
2010,10,19,14,26,15.90
2010,10,19,14,27,16.00
2010,10,19,14,28,16.10
2010,10,19,14,29,16.20
2010,10,19,14,30,16.40
2010,10,19,14,31,16.50
2010,10,19,14,32,16.60
2010,10,19,14,33,16.70
2010,10,19,14,34,16.80
2010,10,19,14,35,16.90
2010,10,19,14,36,17.00
2010,10,19,14,37,17.10
2010,10,19,14,38,17.10
2010,10,19,14,39,17.20
2010,10,19,14,40,17.20
2010,10,19,14,41,17.30
2010,10,19,14,42,17.40
2010,10,19,14,43,17.40
2010,10,19,14,44,17.50
2010,10,19,14,45,17.60
2010,10,19,14,46,17.60
2010,10,19,14,47,17.60
2010,10,19,14,48,17.70
2010,10,19,14,49,17.70
2010,10,19,14,50,17.70
2010,10,19,14,51,17.70
2010,10,19,14,52,17.70
2010,10,19,14,53,17.70
2010,10,19,14,54,17.70
2010,10,19,14,55,17.80
2010,10,19,14,56,17.80
2010,10,19,14,57,17.80
2010,10,19,14,58,17.80
2010,10,19,14,59,17.80
2010,10,19,15,00,17.80
2010,10,19,15,01,17.90
2010,10,19,15,02,17.90
2010,10,19,15,03,18.00
2010,10,19,15,04,18.00
2010,10,19,15,05,18.00
2010,10,19,15,06,18.10
2010,10,19,15,07,18.00
2010,10,19,15,08,18.00
2010,10,19,15,09,17.90
2010,10,19,15,10,17.90
2010,10,19,15,11,17.90
2010,10,19,15,12,17.90
2010,10,19,15,13,17.90
2010,10,19,15,14,17.90
2010,10,19,15,15,17.90
2010,10,19,15,16,17.90
2010,10,19,15,17,17.90
2010,10,19,15,18,17.90
2010,10,19,15,19,17.90
2010,10,19,15,20,17.80
2010,10,19,15,21,17.80
2010,10,19,15,22,17.90
2010,10,19,15,23,17.90
2010,10,19,15,24,17.80
2010,10,19,15,25,17.70
2010,10,19,15,26,17.70
2010,10,19,15,27,17.70
2010,10,19,15,28,17.80
2010,10,19,15,29,17.80
2010,10,19,15,30,17.90
2010,10,19,15,31,17.80
2010,10,19,15,32,17.80
2010,10,19,15,33,17.80
2010,10,19,15,34,17.80
2010,10,19,15,35,17.80
2010,10,19,15,36,17.80
2010,10,19,15,37,17.80
2010,10,19,15,38,17.80
2010,10,19,15,39,17.80
2010,10,19,15,40,17.80
2010,10,19,15,41,17.80
2010,10,19,15,42,17.90
2010,10,19,15,43,17.90
2010,10,19,15,44,17.90
2010,10,19,15,45,17.90
2010,10,19,15,46,17.90
2010,10,19,15,47,17.90
2010,10,19,15,48,17.90
2010,10,19,15,49,18.00
2010,10,19,15,50,18.00
2010,10,19,15,51,18.00
2010,10,19,15,52,18.00
2010,10,19,15,53,18.10
2010,10,19,15,54,18.10
2010,10,19,15,55,18.10
2010,10,19,15,56,18.20
2010,10,19,15,57,18.20
2010,10,19,15,58,18.20
2010,10,19,15,59,18.20
2010,10,19,16,00,18.20
2010,10,19,16,01,18.20
2010,10,19,16,02,18.20
2010,10,19,16,03,18.20
2010,10,19,16,04,18.20
2010,10,19,16,05,18.20
2010,10,19,16,06,18.20
2010,10,19,16,07,18.20
2010,10,19,16,08,18.20
2010,10,19,16,09,18.20
2010,10,19,16,10,18.10
2010,10,19,16,11,18.10
2010,10,19,16,12,18.00
2010,10,19,16,13,18.00
2010,10,19,16,14,17.90
2010,10,19,16,15,17.80
2010,10,19,16,16,17.70
2010,10,19,16,17,17.70
2010,10,19,16,18,17.60
2010,10,19,16,19,17.50
2010,10,19,16,20,17.40
2010,10,19,16,21,17.40
2010,10,19,16,22,17.40
2010,10,19,16,23,17.30
2010,10,19,16,24,17.30
2010,10,19,16,25,17.20
2010,10,19,16,26,17.20
2010,10,19,16,27,17.10
2010,10,19,16,28,17.10
2010,10,19,16,29,17.10
2010,10,19,16,30,17.00
2010,10,19,16,31,17.00
2010,10,19,16,32,16.90
2010,10,19,16,33,16.90
2010,10,19,16,34,16.80
2010,10,19,16,35,16.80
2010,10,19,16,36,16.80
2010,10,19,16,37,16.80
2010,10,19,16,38,16.70
2010,10,19,16,39,16.70
2010,10,19,16,40,16.70
2010,10,19,16,41,16.70
2010,10,19,16,42,16.70
2010,10,19,16,43,16.60
2010,10,19,16,44,16.60
2010,10,19,16,45,16.60
2010,10,19,16,46,16.60
2010,10,19,16,47,16.60
2010,10,19,16,48,16.60
2010,10,19,16,49,16.60
2010,10,19,16,50,16.60
2010,10,19,16,51,16.60
2010,10,19,16,52,16.60
2010,10,19,16,53,16.60
2010,10,19,16,54,16.60
2010,10,19,16,55,16.60
2010,10,19,16,56,16.60
2010,10,19,16,57,16.50
2010,10,19,16,58,16.50
2010,10,19,16,59,16.50
2010,10,19,17,00,16.50
2010,10,19,17,01,16.50
2010,10,19,17,02,16.50
2010,10,19,17,03,16.40
2010,10,19,17,04,16.40
2010,10,19,17,05,16.40
2010,10,19,17,06,16.40
2010,10,19,17,07,16.40
2010,10,19,17,08,16.30
2010,10,19,17,09,16.30
2010,10,19,17,10,16.20
2010,10,19,17,11,16.20
2010,10,19,17,12,16.20
2010,10,19,17,13,16.10
2010,10,19,17,14,16.10
2010,10,19,17,15,16.00
2010,10,19,17,16,16.00
2010,10,19,17,17,15.90
2010,10,19,17,18,15.90
2010,10,19,17,19,15.90
2010,10,19,17,20,15.80
2010,10,19,17,21,15.80
2010,10,19,17,22,15.80
2010,10,19,17,23,15.80
2010,10,19,17,24,15.80
2010,10,19,17,25,15.70
2010,10,19,17,26,15.70
2010,10,19,17,27,15.70
2010,10,19,17,28,15.70
2010,10,19,17,29,15.60
2010,10,19,17,30,15.60
2010,10,19,17,31,15.60
2010,10,19,17,32,15.60
2010,10,19,17,33,15.50
2010,10,19,17,34,15.50
2010,10,19,17,35,15.40
2010,10,19,17,36,15.40
2010,10,19,17,37,15.40
2010,10,19,17,38,15.40
2010,10,19,17,39,15.40
2010,10,19,17,40,15.40
2010,10,19,17,41,15.30
2010,10,19,17,42,15.30
2010,10,19,17,43,15.30
2010,10,19,17,44,15.30
2010,10,19,17,45,15.20
2010,10,19,17,46,15.20
2010,10,19,17,47,15.10
2010,10,19,17,48,15.00
2010,10,19,17,49,15.00
2010,10,19,17,50,15.00
2010,10,19,17,51,15.00
2010,10,19,17,52,15.00
2010,10,19,17,53,15.00
2010,10,19,17,54,15.00
2010,10,19,17,55,14.90
2010,10,19,17,56,14.80
2010,10,19,17,57,14.70
2010,10,19,17,58,14.70
2010,10,19,17,59,14.60
2010,10,19,18,00,14.50
2010,10,19,18,01,14.50
2010,10,19,18,02,14.40
2010,10,19,18,03,14.30
2010,10,19,18,04,14.30
2010,10,19,18,05,14.20
2010,10,19,18,06,14.20
2010,10,19,18,07,14.10
2010,10,19,18,08,14.00
2010,10,19,18,09,13.90
2010,10,19,18,10,13.80
2010,10,19,18,11,13.80
2010,10,19,18,12,13.70
2010,10,19,18,13,13.60
2010,10,19,18,14,13.50
2010,10,19,18,15,13.40
2010,10,19,18,16,13.30
2010,10,19,18,17,13.30
2010,10,19,18,18,13.20
2010,10,19,18,19,13.20
2010,10,19,18,20,13.10
2010,10,19,18,21,13.00
2010,10,19,18,22,13.00
2010,10,19,18,23,12.90
2010,10,19,18,24,12.90
2010,10,19,18,25,12.80
2010,10,19,18,26,12.80
2010,10,19,18,27,12.70
2010,10,19,18,28,12.70
2010,10,19,18,29,12.60
2010,10,19,18,30,12.60
2010,10,19,18,31,12.50
2010,10,19,18,32,12.50
2010,10,19,18,33,12.40
2010,10,19,18,34,12.40
2010,10,19,18,35,12.30
2010,10,19,18,36,12.30
2010,10,19,18,37,12.20
2010,10,19,18,38,12.20
2010,10,19,18,39,12.10
2010,10,19,18,40,12.10
2010,10,19,18,41,12.00
2010,10,19,18,42,12.00
2010,10,19,18,43,11.90
2010,10,19,18,44,11.90
2010,10,19,18,45,11.90
2010,10,19,18,46,11.80
2010,10,19,18,47,11.80
2010,10,19,18,48,11.80
2010,10,19,18,49,11.70
2010,10,19,18,50,11.70
2010,10,19,18,51,11.70
2010,10,19,18,52,11.70
2010,10,19,18,53,11.60
2010,10,19,18,54,11.60
2010,10,19,18,55,11.60
2010,10,19,18,56,11.60
2010,10,19,18,57,11.50
2010,10,19,18,58,11.50
2010,10,19,18,59,11.40
2010,10,19,19,00,11.40
2010,10,19,19,01,11.40
2010,10,19,19,02,11.40
2010,10,19,19,03,11.40
2010,10,19,19,04,11.30
2010,10,19,19,05,11.30
2010,10,19,19,06,11.30
2010,10,19,19,07,11.20
2010,10,19,19,08,11.20
2010,10,19,19,09,11.20
2010,10,19,19,10,11.20
2010,10,19,19,11,11.10
2010,10,19,19,12,11.10
2010,10,19,19,13,11.10
2010,10,19,19,14,11.10
2010,10,19,19,15,11.00
2010,10,19,19,16,11.00
2010,10,19,19,17,11.00
2010,10,19,19,18,10.90
2010,10,19,19,19,10.90
2010,10,19,19,20,10.90
2010,10,19,19,21,10.90
2010,10,19,19,22,10.80
2010,10,19,19,23,10.80
2010,10,19,19,24,10.80
2010,10,19,19,25,10.80
2010,10,19,19,26,10.80
2010,10,19,19,27,10.70
2010,10,19,19,28,10.70
2010,10,19,19,29,10.70
2010,10,19,19,30,10.70
2010,10,19,19,31,10.60
2010,10,19,19,32,10.60
2010,10,19,19,33,10.60